User: anonymous   Login
Location: Chervonnoye
(48.6000°N, 34.4000°E)
Time: 16:06:24
(UTC+00:00)
Language:

PicSat - Orbit

View from above orbital plane
View from above orbital plane
View from above satellite
View from above satellite

Ground track
Ground track

The orbit data is extracted from the following two-line orbital elements,

1 43131U 18004W   21336.60846186  .00007564  00000-0  27024-3 0  9999
2 43131  97.3988  51.4964 0007172 337.7953  22.2976 15.29098977216443
Epoch (UTC): 02 December 2021 14:36:11
Eccentricity: 0.0007172
inclination: 97.3988°
perigee height: 473 km
apogee height: 483 km
right ascension of ascending node: 51.4964°
argument of perigee: 337.7953°
revolutions per day: 15.29098977
mean anomaly at epoch: 22.2976°
orbit number at epoch: 21644

The dashed part of the orbit path shows where the satellite is in the earth's shadow,  

DLR